TimeCDT,TemperatureF,Dew PointF,Humidity,Sea Level PressureIn,VisibilityMPH,Wind Direction,Wind SpeedMPH,Gust SpeedMPH,PrecipitationIn,Events,Conditions,WindDirDegrees,DateUTC
12:00 AM,48.2,46.4,93,29.74,6.0,West,6.9,-,N/A,,Overcast,280,2013-03-18 05:00:00
12:53 AM,48.9,46.9,93,29.72,7.0,West,4.6,-,N/A,,Overcast,280,2013-03-18 05:53:00
1:14 AM,50.0,46.4,87,29.73,6.0,WNW,5.8,-,N/A,,Overcast,300,2013-03-18 06:14:00
1:53 AM,50.0,46.0,86,29.72,7.0,Calm,Calm,-,N/A,,Overcast,0,2013-03-18 06:53:00
2:53 AM,50.0,46.0,86,29.73,6.0,Calm,Calm,-,N/A,,Overcast,0,2013-03-18 07:53:00
3:31 AM,50.0,46.4,87,29.73,6.0,North,3.5,-,N/A,,Overcast,350,2013-03-18 08:31:00
3:53 AM,50.0,46.0,86,29.73,6.0,North,5.8,-,N/A,,Overcast,360,2013-03-18 08:53:00
4:18 AM,48.2,44.6,87,29.73,7.0,Calm,Calm,-,N/A,,Scattered Clouds,0,2013-03-18 09:18:00
4:44 AM,48.2,44.6,87,29.75,6.0,Calm,Calm,-,N/A,,Mostly Cloudy,0,2013-03-18 09:44:00
4:53 AM,48.9,45.0,86,29.74,7.0,SSW,3.5,-,N/A,,Mostly Cloudy,200,2013-03-18 09:53:00
5:53 AM,48.0,45.0,89,29.78,6.0,West,6.9,-,N/A,,Overcast,280,2013-03-18 10:53:00
6:10 AM,46.4,44.6,93,29.77,5.0,WSW,3.5,-,N/A,,Scattered Clouds,250,2013-03-18 11:10:00
6:53 AM,46.9,44.1,90,29.81,5.0,WNW,8.1,-,N/A,,Partly Cloudy,290,2013-03-18 11:53:00
7:14 AM,48.2,44.6,87,29.84,5.0,West,10.4,-,N/A,,Mostly Cloudy,270,2013-03-18 12:14:00
7:53 AM,48.0,45.0,89,29.78,3.0,Calm,Calm,-,0.02,Rain,Light Rain,0,2013-03-18 12:53:00
8:00 AM,48.2,44.6,87,29.79,3.0,Calm,Calm,-,0.00,,Mostly Cloudy,0,2013-03-18 13:00:00
8:37 AM,48.2,44.6,87,29.83,2.5,West,6.9,-,0.00,,Mostly Cloudy,280,2013-03-18 13:37:00
8:53 AM,48.0,45.0,89,29.83,2.5,NW,9.2,-,0.00,,Overcast,310,2013-03-18 13:53:00
9:53 AM,50.0,46.0,86,29.84,5.0,West,6.9,-,N/A,,Overcast,280,2013-03-18 14:53:00
10:53 AM,50.0,43.0,77,29.88,10.0,WNW,11.5,-,N/A,,Overcast,300,2013-03-18 15:53:00
11:53 AM,52.0,44.1,74,29.91,10.0,NW,9.2,-,N/A,,Overcast,320,2013-03-18 16:53:00
12:53 PM,53.1,42.1,66,29.92,10.0,NNW,15.0,-,N/A,,Overcast,340,2013-03-18 17:53:00
1:53 PM,53.1,41.0,64,29.94,10.0,North,11.5,-,N/A,,Overcast,360,2013-03-18 18:53:00
2:53 PM,55.0,41.0,59,29.93,10.0,NNW,8.1,18.4,N/A,,Clear,340,2013-03-18 19:53:00
3:53 PM,57.9,41.0,53,29.92,10.0,North,10.4,18.4,N/A,,Clear,350,2013-03-18 20:53:00
4:53 PM,59.0,39.0,48,29.93,10.0,NW,4.6,-,N/A,,Clear,310,2013-03-18 21:53:00
5:53 PM,59.0,36.0,42,29.95,10.0,NNW,11.5,-,N/A,,Clear,340,2013-03-18 22:53:00
6:53 PM,57.9,35.1,42,29.96,10.0,North,8.1,-,N/A,,Clear,360,2013-03-18 23:53:00
7:53 PM,54.0,35.1,49,29.98,10.0,Calm,Calm,-,N/A,,Clear,0,2013-03-19 00:53:00
8:53 PM,48.9,44.1,83,30.01,10.0,Calm,Calm,-,N/A,,Clear,0,2013-03-19 01:53:00
9:53 PM,48.0,37.9,68,30.03,10.0,Calm,Calm,-,N/A,,Clear,0,2013-03-19 02:53:00
10:53 PM,46.9,39.0,74,30.06,10.0,Calm,Calm,-,N/A,,Clear,0,2013-03-19 03:53:00
11:53 PM,42.1,37.9,85,30.06,10.0,Calm,Calm,-,N/A,,Clear,0,2013-03-19 04:53:00